TimeEST,TemperatureF,Dew PointF,Humidity,Sea Level PressureIn,VisibilityMPH,Wind Direction,Wind SpeedMPH,Gust SpeedMPH,PrecipitationIn,Events,Conditions,WindDirDegrees,DateUTC
12:53 AM,7.0,-0.9,70,30.43,10.0,Calm,Calm,-,N/A,,Clear,0,2014-01-29 05:53:00
1:53 AM,6.1,-0.9,73,30.43,10.0,Calm,Calm,-,N/A,,Clear,0,2014-01-29 06:53:00
2:53 AM,7.0,-0.9,70,30.42,10.0,Calm,Calm,-,N/A,,Clear,0,2014-01-29 07:53:00
3:53 AM,5.0,-0.0,80,30.43,10.0,South,3.5,-,N/A,,Clear,190,2014-01-29 08:53:00
4:53 AM,5.0,-0.9,76,30.42,10.0,Calm,Calm,-,N/A,,Clear,0,2014-01-29 09:53:00
5:53 AM,3.9,-0.9,80,30.41,10.0,Calm,Calm,-,N/A,,Clear,0,2014-01-29 10:53:00
6:53 AM,5.0,-2.0,73,30.41,10.0,Calm,Calm,-,N/A,,Clear,0,2014-01-29 11:53:00
7:53 AM,5.0,-2.0,73,30.43,10.0,Calm,Calm,-,N/A,,Clear,0,2014-01-29 12:53:00
8:53 AM,8.1,-2.0,64,30.44,10.0,South,3.5,-,N/A,,Clear,170,2014-01-29 13:53:00
9:53 AM,10.9,-0.0,61,30.45,10.0,SSW,5.8,-,N/A,,Clear,200,2014-01-29 14:53:00
10:53 AM,16.0,1.0,52,30.45,10.0,SSW,6.9,-,N/A,,Clear,200,2014-01-29 15:53:00
11:53 AM,19.9,-0.0,42,30.44,10.0,SSW,6.9,-,N/A,,Clear,210,2014-01-29 16:53:00
12:53 PM,21.9,-0.9,37,30.41,10.0,SSW,9.2,-,N/A,,Clear,200,2014-01-29 17:53:00
1:53 PM,24.1,-0.0,35,30.39,10.0,SW,9.2,17.3,N/A,,Clear,230,2014-01-29 18:53:00
2:53 PM,25.0,-0.9,33,30.37,10.0,West,10.4,16.1,N/A,,Clear,260,2014-01-29 19:53:00
3:53 PM,26.1,-0.0,32,30.37,10.0,SW,10.4,16.1,N/A,,Clear,230,2014-01-29 20:53:00
4:53 PM,25.0,-0.0,34,30.37,10.0,West,8.1,-,N/A,,Clear,260,2014-01-29 21:53:00
5:53 PM,24.1,-0.0,35,30.37,10.0,SW,5.8,-,N/A,,Clear,230,2014-01-29 22:53:00
6:53 PM,23.0,1.0,39,30.37,10.0,SSW,4.6,-,N/A,,Clear,200,2014-01-29 23:53:00
7:53 PM,21.9,1.0,40,30.38,10.0,Calm,Calm,-,N/A,,Clear,0,2014-01-30 00:53:00
8:53 PM,21.0,1.9,44,30.37,10.0,Calm,Calm,-,N/A,,Clear,0,2014-01-30 01:53:00
9:53 PM,19.9,1.9,46,30.35,10.0,South,3.5,-,N/A,,Clear,170,2014-01-30 02:53:00
10:53 PM,19.0,1.0,46,30.35,10.0,South,4.6,-,N/A,,Clear,170,2014-01-30 03:53:00
11:53 PM,18.0,1.0,48,30.35,10.0,South,4.6,-,N/A,,Clear,170,2014-01-30 04:53:00